This is the latest recevied weather packets stored in our database for station/object N6DZK. If no packets are shown the sender has not sent any weather packets the latest 10 day(s).
| Time | Temp. | Humidity | Pressure | Rain* | Wind** | Luminosity | Snow |
|---|---|---|---|---|---|---|---|
| 1778088445 | 21.67° C | 56% | 1019.9 hPa | 0 mm | - | 807 W/m² | - |
| 1778088141 | 21.11° C | 56% | 1020.2 hPa | 0 mm | - | 792 W/m² | - |
| 1778087839 | 21.67° C | 55% | 1019.9 hPa | 0 mm | - | 780 W/m² | - |
| 1778087536 | 21.11° C | 55% | 1020.1 hPa | 0 mm | - | 763 W/m² | - |
| 1778087233 | 21.11° C | 60% | 1020.2 hPa | 0 mm | - | 742 W/m² | - |
| 1778086930 | 20.56° C | 59% | 1020.2 hPa | 0 mm | - | 723 W/m² | - |
| 1778086628 | 20.56° C | 58% | 1020.2 hPa | 0 mm | - | 698 W/m² | - |
| 1778086325 | 20.56° C | 57% | 1020.1 hPa | 0 mm | - | 682 W/m² | - |
| 1778086022 | 20.56° C | 58% | 1020.4 hPa | 0 mm | - | 662 W/m² | - |
| 1778085719 | 21.11° C | 57% | 1020.1 hPa | 0 mm | - | 648 W/m² | - |
| 1778085415 | 20.56° C | 59% | 1020.3 hPa | 0 mm | - | 635 W/m² | - |
| 1778085111 | 20° C | 61% | 1020.4 hPa | 0 mm | - | 623 W/m² | - |
| 1778084807 | 20° C | 60% | 1020.4 hPa | 0 mm | - | 610 W/m² | - |
| 1778084505 | 20° C | 60% | 1020.3 hPa | 0 mm | - | 597 W/m² | - |
| 1778084202 | 20.56° C | 59% | 1020.5 hPa | 0 mm | - | 579 W/m² | - |
| 1778083898 | 20.56° C | 60% | 1020.3 hPa | 0 mm | - | 555 W/m² | - |
| 1778083596 | 20° C | 61% | 1020.6 hPa | 0 mm | - | 534 W/m² | - |
| 1778083293 | 20° C | 63% | 1020.4 hPa | 0 mm | - | 508 W/m² | - |
| 1778082992 | 20° C | 62% | 1020.4 hPa | 0 mm | - | 485 W/m² | - |
| 1778082689 | 18.89° C | 64% | 1020.7 hPa | 0 mm | - | 394 W/m² | - |
| 1778081550 | 18.89° C | 66% | 1020.6 hPa | 0 mm | - | 353 W/m² | - |
| 1778081247 | 17.78° C | 66% | 1020.7 hPa | 0 mm | - | 313 W/m² | - |
| 1778080944 | 18.33° C | 66% | 1020.8 hPa | 0 mm | - | 298 W/m² | - |
| 1778080644 | 17.22° C | 69% | 1020.8 hPa | 0 mm | - | 284 W/m² | - |
| 1778080340 | 17.22° C | 68% | 1020.8 hPa | 0 mm | - | 261 W/m² | - |
* Rain latest hour (hover to see other rain measurements)
** Current wind speed in m/s (hover to see current wind gust speed)